Showing default

ANGOSAT 2, 54033

Orbit data source: Space-Track

ANGOSAT 2, 54033 is a payload satellite owned by GGPEN (AO) in GEO that was launched on Wed, 12 Oct 2022 UTC via a PROTON-M/DM-3 launch vehicle from the Tyuratam Missile And Space Complex (TTMTR). Payload-class satellites include a variety of spacecraft equipped with specific instruments for various scientific and technological missions. These include communications satellites like Starlink; space stations such as the ISS; scientific satellites like the Hubble; Earth observation satellites from companies like Planet Labs, Umbra, and HawkEye 360; GPS; miniature CubeSats for education and research; and military/defense satellites.

Not visible in the next 10 days
Identifier
54033, 2022-131A
Orbit
GEO
Country
Flag of AOAO / AGO
Related business
Manufacturer
Resehetnev ISS
Mission
Operational Civil Communications
Bus & Motor
EKSPRESS-1000N, AOCS
Mass
2,150 kg wet, ~1,800 kg dry
Launch date (UTC)
2022-10-12 (4 years ago)
Launch vehicle
PROTON-M/DM-3
Launch site
Tyuratam Missile And Space Complex (TTMTR)
Object type
Payload
Rocket body
Debris
Shape & HBR
Box + 2 Pan, 7.5 m
Radar Cross Section
16.987 m², Large (>1 m²)

Expand to show TLE details & history
Last TLE update: 2 days ago

TLE from 2 days ago
0 ANGOSAT 2
1 54033U 22131A   26253.23166752  .00000115  00000-0  00000+0 0  9990
2 54033   0.0027  75.2797 0000764 198.5728 181.8150  1.00273059 14321
Epoch: 2026-09-10T05:33Z
TLE epoch observation values (Epoch: 2026-09-10T05:33:36.073Z)
Latitude
-0.00579°
Longitude
22.9996°
Altitude
35,788.936 km
Speed
3.074 km/s
True Right ascension
06h 22m 41s
True Declination
0° 00' 21"
Sunlit
Object was in daylight at epoch
Visualization orbit readout
Latitude
Unknown
Longitude
Unknown
Altitude
Unknown
Speed
Unknown
Apparent Right ascension
Unknown
Apparent Declination
Unknown
Sunlit
N/A
Visualization observer readout
Local Sidereal Time
10:35:17
Azimuth
Unknown
Elevation
Unknown
Doppler factor
Unknown
Orbital elements
Apogee altitude
35,790.53 km
Perigee altitude
35,784.087 km
Semi-major axis
42,165.445 km
Eccentricity
0.00008
Inclination
0.0027°
RAAN
75.2797°
Arg. of periapsis
198.5728°
True anomaly
181.81472°
Mean anomaly
181.815°
Eccentric anomaly
181.81486°
Mean motion
0.25067 °/min
Orbital period
1,436.13 mins
BSTAR
0
Loading maneuver chart data...
Computing Atmospheric mass density...
Loading historical data...
Loading historical data...
Loading historical data...
Loading historical data...
Loading historical data...
Loading historical data...
Loading historical data...
Other satellites on launch #131 in the year 2022 (2022-10-12 UTC)

Documentation

Showing up to 5 results
|